CT1EDG-13 Weather Reports


time (UTC)temp
C
wind
direction
speed
KPH
gust
KPH
rain 1hr
cm
rain 24hr
cm
rain mn
cm
humidity
%
barometer
mb
20260508142317 47 100 3.2 8.0 0.00 0.00 0.00 25 998.6
20260508141317 47 186 9.7 8.0 0.00 0.00 0.00 25 998.8
20260508140317 47 150 1.6 8.0 0.00 0.00 0.00 25 998.8
20260508135317 47 234 4.8 11.3 0.00 0.00 0.00 25 999.0
20260508134317 47 236 4.8 8.0 0.00 0.00 0.00 25 999.2
20260508133317 47 27 4.8 4.8 0.00 0.00 0.00 25 999.4
20260508132316 47 209 4.8 9.7 0.00 0.00 0.00 25 999.3
20260508131316 47 187 6.4 8.0 0.00 0.00 0.00 25 999.2
20260508130316 47 165 6.4 11.3 0.00 0.00 0.00 25 999.2
20260508125316 47 187 8.0 11.3 0.00 0.00 0.00 25 999.3
20260508124316 47 202 4.8 6.4 0.00 0.00 0.00 25 999.3
20260508123314 47 170 3.2 8.0 0.00 0.00 0.00 25 999.5
20260508122314 47 194 4.8 6.4 0.00 0.00 0.00 25 999.6
20260508121312 47 167 4.8 11.3 0.00 0.00 0.00 25 999.7
20260508120312 47 150 3.2 4.8 0.00 0.00 0.00 25 999.8
20260508115312 47 225 11.3 4.8 0.00 0.00 0.00 25 1000.0
20260508114312 47 193 3.2 6.4 0.00 0.00 0.00 25 1000.1
20260508113311 47 140 1.6 3.2 0.00 0.00 0.00 25 1000.1
20260508112311 47 209 4.8 14.5 0.00 0.00 0.00 25 1000.2
20260508111311 47 181 6.4 14.5 0.00 0.00 0.00 25 1000.1
20260508110311 47 127 4.8 6.4 0.00 0.00 0.00 25 1000.1
20260508105311 47 186 4.8 6.4 0.00 0.00 0.00 25 1000.1
20260508104311 47 118 4.8 14.5 0.00 0.00 0.00 25 1000.2
20260508103311 47 180 4.8 6.4 0.00 0.00 0.00 25 1000.3
20260508102310 47 196 1.6 6.4 0.00 0.00 0.00 25 1000.4
20260508101310 47 147 3.2 6.4 0.00 0.00 0.00 25 1000.3
20260508100310 47 254 3.2 11.3 0.00 0.00 0.00 25 1000.4
20260508095310 47 209 1.6 4.8 0.00 0.00 0.00 25 1000.4
20260508094310 47 94 1.6 6.4 0.00 0.00 0.00 25 1000.3
20260508093310 47 197 3.2 4.8 0.00 0.00 0.00 25 1000.3
20260508092313 47 135 3.2 4.8 0.00 0.00 0.00 25 1000.4
20260508091308 47 180 1.6 1.6 0.00 0.00 0.00 25 1000.4
20260508090307 47 145 0.0 1.6 0.00 0.00 0.00 25 1000.4
20260508085307 47 157 4.8 4.8 0.00 0.00 0.00 25 1000.5
20260508084307 47 161 0.0 0.0 0.00 0.00 0.00 25 1000.4
20260508083306 47 149 1.6 1.6 0.00 0.00 0.00 25 1000.5
20260508082306 47 139 1.6 1.6 0.00 0.00 0.00 25 1000.5
20260508081305 47 242 4.8 8.0 0.00 0.00 0.00 25 1000.4
20260508080305 47 154 1.6 3.2 0.00 0.00 0.00 25 1000.4
20260508075308 47 172 1.6 4.8 0.00 0.00 0.00 25 1000.4
20260508074305 47 180 0.0 3.2 0.00 0.00 0.00 25 1000.4
20260508073305 47 144 0.0 0.0 0.00 0.00 0.00 25 1000.4
20260508072307 47 153 0.0 1.6 0.00 0.00 0.00 25 1000.4
20260508071304 47 139 0.0 0.0 0.00 0.00 0.00 25 1000.3
20260508070304 47 146 0.0 0.0 0.00 0.00 0.00 25 1000.3
20260508065306 47 147 0.0 0.0 0.00 0.00 0.00 25 1000.2
20260508064303 47 151 0.0 1.6 0.00 0.00 0.00 25 1000.2
20260508063303 47 142 0.0 0.0 0.00 0.00 0.00 25 1000.2
20260508062306 47 158 0.0 0.0 0.00 0.00 0.00 25 1000.2
20260508061302 47 133 0.0 0.0 0.00 0.00 0.00 25 1000.1
20260508060302 47 133 0.0 0.0 0.00 0.00 0.00 25 1000.1
20260508055301 47 133 0.0 0.0 0.00 0.00 0.00 25 1000.1
20260508054301 47 132 0.0 0.0 0.00 0.00 0.00 25 999.9
20260508053301 47 137 0.0 0.0 0.00 0.00 0.00 25 999.8
20260508052301 47 137 0.0 0.0 0.00 0.00 0.00 25 999.8
20260508051301 47 137 0.0 0.0 0.00 0.00 0.00 25 999.7
20260508050301 47 144 0.0 0.0 0.00 0.00 0.00 25 999.5
20260508045300 47 145 0.0 0.0 0.00 0.00 0.00 25 999.5
20260508044300 47 102 0.0 0.0 0.00 0.00 0.00 25 999.5
20260508043259 47 112 0.0 1.6 0.00 0.00 0.00 25 999.4
20260508042259 47 111 0.0 0.0 0.00 0.00 0.00 25 999.4
20260508041259 47 101 1.6 1.6 0.00 0.00 0.00 25 999.5
20260508040257 47 136 0.0 0.0 0.00 0.00 0.00 25 999.7
20260508035257 47 136 0.0 0.0 0.05 0.00 0.00 25 999.8
20260508034257 47 138 0.0 0.0 0.05 0.00 0.00 25 999.9
20260508033256 47 350 3.2 3.2 0.05 0.00 0.00 25 1000.0
20260508032256 47 313 1.6 3.2 0.03 0.00 0.00 25 1000.0
20260508031255 47 147 0.0 0.0 0.00 0.00 0.00 25 999.8
20260508030255 47 133 0.0 0.0 0.00 0.00 0.00 25 999.8
20260508025255 47 133 0.0 0.0 0.00 0.00 0.00 25 999.8
20260508024255 47 133 0.0 0.0 0.00 0.00 0.00 25 999.8
20260508023254 47 129 0.0 0.0 0.00 0.00 0.00 25 999.9
20260508022254 47 130 0.0 0.0 0.00 0.00 0.00 25 999.9
20260508021254 47 130 0.0 0.0 0.00 0.00 0.00 25 1000.0
20260508020254 47 130 0.0 0.0 0.00 0.00 0.00 25 1000.2
20260508015254 47 130 0.0 0.0 0.00 0.00 0.00 25 1000.3
20260508014254 47 130 0.0 0.0 0.00 0.00 0.00 25 1000.4
20260508013254 47 130 0.0 0.0 0.00 0.00 0.00 25 1000.5
20260508012254 47 130 0.0 0.0 0.00 0.00 0.00 25 1000.7
20260508011253 47 112 0.0 0.0 0.00 0.00 0.00 25 1000.7
20260508010253 47 117 0.0 0.0 0.00 0.00 0.00 25 1000.7
20260508005253 47 113 0.0 0.0 0.00 0.00 0.00 25 1000.8
20260508004253 47 112 0.0 0.0 0.00 0.00 0.00 25 1001.0
20260508003252 47 133 0.0 0.0 0.00 0.00 0.00 25 1001.1
20260508002252 47 137 0.0 0.0 0.00 0.00 0.00 25 1001.1
20260508001251 47 152 0.0 0.0 0.00 0.00 0.00 25 1001.1
20260508000251 47 155 0.0 0.0 0.00 0.00 0.00 25 1001.2
20260507235251 47 158 0.0 0.0 0.00 0.00 0.00 25 1001.2
20260507234251 47 98 0.0 0.0 0.00 0.00 0.00 25 1001.2
20260507233250 47 131 0.0 0.0 0.00 0.00 0.00 25 1001.1
20260507232249 47 134 0.0 1.6 0.00 0.00 0.00 25 1001.1
20260507231248 47 136 0.0 0.0 0.00 0.00 0.00 25 1001.1
20260507230248 47 136 0.0 0.0 0.00 0.00 0.00 25 1001.2
20260507225247 47 90 0.0 0.0 0.00 0.00 0.00 25 1001.5
20260507224247 47 160 0.0 1.6 0.00 0.00 0.00 25 1001.6
20260507223247 47 159 0.0 0.0 0.00 0.00 0.00 25 1001.6
20260507222247 47 152 0.0 0.0 0.00 0.00 0.00 25 1001.7
20260507221247 47 138 0.0 0.0 0.00 0.00 0.00 25 1001.6
20260507220247 47 270 0.0 0.0 0.00 0.00 0.00 25 1001.6
20260507215247 47 266 1.6 1.6 0.00 0.00 0.00 25 1001.7
20260507214247 47 168 1.6 1.6 0.00 0.00 0.00 25 1001.7
20260507213246 47 261 1.6 1.6 0.00 0.00 0.00 25 1001.9
20260507212246 47 119 0.0 1.6 0.00 0.00 0.00 25 1001.9
20260507211246 47 122 0.0 1.6 0.00 0.00 0.00 25 1001.9
20260507210246 47 127 0.0 0.0 0.00 0.00 0.00 25 1002.0
20260507205246 47 294 1.6 3.2 0.00 0.00 0.00 25 1001.7
20260507204245 47 330 4.8 4.8 0.00 0.00 0.00 25 1002.1
20260507203245 47 259 1.6 3.2 0.00 0.00 0.00 25 1002.0
20260507202244 47 110 0.0 1.6 0.00 0.00 0.00 25 1001.9
20260507201244 47 93 3.2 3.2 0.00 0.00 0.00 25 1001.7
20260507200243 47 154 0.0 1.6 0.00 0.00 0.00 25 1001.7
20260507195243 47 8 3.2 3.2 0.00 0.00 0.00 25 1001.6
20260507194243 47 23 1.6 3.2 0.00 0.00 0.00 25 1001.6
20260507193242 47 141 1.6 1.6 0.00 0.00 0.00 25 1001.6
20260507192241 47 310 3.2 4.8 0.00 0.00 0.00 25 1001.5
20260507191241 47 355 3.2 4.8 0.00 0.00 0.00 25 1001.4
20260507190241 47 222 1.6 1.6 0.00 0.00 0.00 25 1001.4
20260507185241 47 340 3.2 6.4 0.00 0.00 0.00 25 1001.4
20260507184241 47 151 4.8 6.4 0.00 0.00 0.00 25 1001.3
20260507183241 47 360 4.8 6.4 0.00 0.00 0.00 25 1001.4
20260507182241 47 360 4.8 6.4 0.00 0.00 0.00 25 1001.4
20260507181241 47 199 3.2 3.2 0.00 0.00 0.00 25 1001.3
20260507180241 47 164 8.0 9.7 0.00 0.00 0.00 25 1001.3
20260507175240 47 352 4.8 6.4 0.00 0.00 0.00 25 1001.3
20260507174240 47 3 3.2 3.2 0.00 0.00 0.00 25 1001.2
20260507173240 47 261 3.2 6.4 0.00 0.00 0.00 25 1001.2
20260507172239 47 224 3.2 4.8 0.00 0.00 0.00 25 1001.3
20260507171239 47 90 8.0 9.7 0.00 0.00 0.00 25 1001.3
20260507170239 47 314 4.8 8.0 0.00 0.00 0.00 25 1001.2
20260507165239 47 241 3.2 6.4 0.00 0.00 0.00 25 1001.1
20260507164239 47 111 11.3 14.5 0.00 0.00 0.00 25 1001.1
20260507163238 47 359 4.8 8.0 0.00 0.00 0.00 25 1001.1
20260507162238 47 333 6.4 9.7 0.00 0.00 0.00 25 1001.0
20260507161237 47 252 6.4 9.7 0.00 0.00 0.00 25 1001.0
20260507160237 47 161 3.2 6.4 0.00 0.00 0.00 25 1001.0
20260507155237 47 360 4.8 6.4 0.00 0.00 0.00 25 1001.1
20260507154237 47 19 8.0 9.7 0.00 0.00 0.00 25 1001.0
20260507153236 47 69 1.6 4.8 0.00 0.00 0.00 25 1001.2
20260507152236 47 332 9.7 14.5 0.00 0.00 0.00 25 1001.3
20260507151236 47 192 6.4 9.7 0.00 0.00 0.00 25 1001.2
20260507150236 47 181 4.8 8.0 0.00 0.00 0.00 25 1001.3
20260507145235 47 245 6.4 8.0 0.00 0.00 0.00 25 1001.4
20260507144235 47 280 4.8 6.4 0.00 0.00 0.00 25 1001.4
20260507143235 47 270 8.0 14.5 0.00 0.00 0.00 25 1001.4